Location: Churchill Northern Studies Centre
(58.7378°N, 93.8201°W)
Time: 10:02:42
(UTC-05:00)

N. Korean satellite - Pass Details

Date: 16 October 2017
Orbit: 459 x 517 km, 97.2° (Epoch: 22 October)

Event Time Altitude Azimuth Distance (km) Brightness Sun altitude
Rises 19:14:39 0° 174° (S) 2,526 10.2 -9.7°
Reaches altitude 10° 19:16:44 10° 179° (S) 1,643 9.3 -10.0°
Maximum altitude 19:20:13 56° 258° (WSW) 568 7.3 -10.4°
Drops below altitude 10° 19:23:40 10° 338° (NNW) 1,633 9.5 -10.9°
Sets 19:25:44 0° 343° (NNW) 2,509 10.4 -11.1°
